Regional Weather Roundup
Issued by NWS Grand Forks, ND

Home | Current Version | Previous Version | Graphics & Text | Print | Product List | Glossary On
Versions: 1 2 3 4 5 6 7 8 9 10 11 12 13 14 15 16 17 18 19 20 21 22 23 24 25 26 27 28 29 30 31 32 33 34 35 36 37 38 39 40 41 42 43 44 45 46 47 48 49 50
000
ASUS43 KFGF 290610
RWRFGF
PRAIRIE TO PINES  WEATHER ROUNDUP
NATIONAL WEATHER SERVICE EASTERN NORTH DAKOTA/GRAND FORKS ND
100 AM CDT FRI AUG 29 2014

 **SATELLITE DATA USED TO AUGMENT SKY COVER AT AUTOMATED STATIONS**
 *****  WEATHER ACROSS EASTERN NORTH DAKOTA  *****

CITY           SKY/WX    TMP DP  RH WIND       PRES   REMARKS
GRAND FORKS    CLOUDY    67  64  90 S12       29.81F
6HR MIN TEMP:  67; 6HR MAX TEMP:  71;

GRAND FRKS AFB CLOUDY    67  67  99 SW10      29.81F
GRAND FRKS NWS   N/A     66 N/A N/A S6          N/A
DEVILS LAKE    CLOUDY    66  63  88 S15G21    29.78F
6HR MIN TEMP:  66; 6HR MAX TEMP:  73;

FARGO          CLOUDY    66  64  93 S6        29.83F
WAHPETON ARPT  CLOUDY    64  61  88 SE3       29.84S
$$

 ***** WEATHER ACROSS CENTRAL AND WESTERN NORTH DAKOTA  *****

CITY           SKY/WX    TMP DP  RH WIND       PRES   REMARKS
BISMARCK       PTCLDY    65  64  97 S3        29.81F
6HR MIN TEMP:  62; 6HR MAX TEMP:  73;

MINOT          FAIR      70  64  81 S8        29.74F
6HR MIN TEMP:  70; 6HR MAX TEMP:  83;

JAMESTOWN      CLOUDY    65  64  97 S8        29.82F FOG
6HR MIN TEMP:  65; 6HR MAX TEMP:  68;

MINOT AFB      FAIR      69  68  97 SW13      29.72F
GARRISON         N/A     66  65  96 S6        29.78F
WILLISTON      CLEAR     69  55  60 N3        29.78R
6HR MIN TEMP:  68; 6HR MAX TEMP:  91;

DICKINSON      CLEAR     62  56  80 S12       29.81F
6HR MIN TEMP:  62; 6HR MAX TEMP:  85;

HETTINGER      CLEAR     63  59  87 SE3       29.86F
6HR MIN TEMP:  62; 6HR MAX TEMP:  79;

$$

 *****  OTHER AIRPORT OBSERVATIONS IN OUR AREA  *****

CITY           SKY/WX    TMP DP  RH WIND       PRES   REMARKS
WALHALLA         N/A     66  66 100 SE3       29.78R
GRAFTON AIRPOR CLOUDY    66  66 100 S10       29.79F
VALLEY CITY AR CLOUDY    64  64 100 S8        29.83F FOG
CANDO          CLOUDY    64  64 100 S9        29.78F
CAVALIER APRT  CLOUDY    66  64  94 S13G21    29.78S
GWINNER        CLOUDY    66  66 100 S6        29.85F
SHEYENNE NWR     N/A     65  64  98 SE6       29.95S
ROLLA          CLOUDY    63  63 100 SW8       29.80R FOG
 ***** THE ABOVE OBSERVATIONS ARE NON NWS ARE NOT QUALITY
       CONTROLLED AND MAY MIS-REPORT RAIN FOR SNOW...
$$

  *****  WEATHER ACROSS NORTHERN MINNESOTA  *****

CITY           SKY/WX    TMP DP  RH WIND       PRES   REMARKS
FLAG ISLAND    CLOUDY    68  63  83 S8        29.81F
WARROAD        CLOUDY    66  63  88 S7        29.84F
ROSEAU         MOCLDY    68  63  83 S9        29.83F
HALLOCK        CLOUDY    68  64  88 S14G21    29.80S
THF RVR FALLS  CLOUDY    64  61  88 S7        29.85F
6HR MIN TEMP:  64; 6HR MAX TEMP:  70;

BAUDETTE       CLOUDY    65  61  87 VRB3      29.85F
6HR MIN TEMP:  65; 6HR MAX TEMP:  68;

WASKISH        FAIR      64  61  88 CALM      29.87F
CROOKSTON      MOCLDY    64  63  94 S6        29.84F
$$
  *****  WEATHER ACROSS CENTRAL AND WEST MINNESOTA  *****

CITY           SKY/WX    TMP DP  RH WIND       PRES   REMARKS
FOSSTON        FAIR      63  59  88 SE7       29.86F
BEMIDJI        CLOUDY    63  61  92 SE8       29.88F
PARK RAPIDS    LGT RAIN  64  63  96 SE10      29.88F
6HR MIN TEMP:  64; 6HR MAX TEMP:  67; 6HR PCP:  0.03;

ELBOW LAKE     CLOUDY    65  64  99 SE8       29.84F
6HR MIN TEMP:  64; 6HR MAX TEMP:  65; 6HR PCP:  0.05;

WADENA         LGT RAIN  63  63 100 SE7       29.87F
DETROIT LAKES  RAIN      64  63  94 SE10      29.88F
MOORHEAD       DRIZZLE   66  66 100 SE6       29.84F
FERGUS FALLS   CLOUDY    64  64 100 SE6       29.84F FOG
MORRIS MN      CLOUDY    66  66 100 SE9       29.83F FOG
STAPLES        RAIN      63  63 100 SE5       29.88F
$$
  *****  WEATHER ELSEWHERE ACROSS MINNESOTA  *****

CITY           SKY/WX    TMP DP  RH WIND       PRES   REMARKS
DULUTH         CLOUDY    60  55  83 E6        29.95F
6HR MIN TEMP:  60; 6HR MAX TEMP:  64; 6HR PCP: TRACE;

INTRNTL FALLS  CLOUDY    62  60  93 CALM      29.89F
6HR MIN TEMP:  62; 6HR MAX TEMP:  68; 6HR PCP:  0.03;

ELY            CLOUDY    59  52  77 S5        29.95S
CLOQUET        CLOUDY    61  57  88 CALM      29.94F
WHEATON        CLOUDY    63  63 100 SE5       29.85S FOG
BRAINERD       CLOUDY    63  62  97 VRB5      29.90F
6HR MIN TEMP:  63; 6HR MAX TEMP:  67; 6HR PCP: TRACE;

HIBBING        LGT RAIN  59  55  87 CALM      29.94F
6HR MIN TEMP:  59; 6HR MAX TEMP:  69; 6HR PCP:  0.01;

ALEXANDRIA     CLOUDY    65  64  97 SE12      29.87F
6HR MIN TEMP:  64; 6HR MAX TEMP:  65; 6HR PCP:  0.13;

SAINT CLOUD    CLOUDY    68  64  87 E6        29.87F
6HR MIN TEMP:  67; 6HR MAX TEMP:  68; 6HR PCP: TRACE;

MINNEAPOLIS    CLOUDY    67  65  93 SE13      29.88F
6HR MIN TEMP:  67; 6HR MAX TEMP:  68; 6HR PCP: TRACE;

$$

  *****  WEATHER ACROSS SOUTH DAKOTA  *****

CITY           SKY/WX    TMP DP  RH WIND       PRES   REMARKS
SIOUX FALLS    CLOUDY    71  70  96 E3        29.81S FOG
6HR MIN TEMP:  70; 6HR MAX TEMP:  72; 6HR PCP: TRACE;

BROOKINGS      NOT AVBL
WATERTOWN      CLOUDY    66  66 100 E5        29.83F FOG
6HR MIN TEMP:  65; 6HR MAX TEMP:  67;

HURON          CLOUDY    69  68  96 E7        29.78F
6HR MIN TEMP:  69; 6HR MAX TEMP:  72; 6HR PCP:  0.01;

SISSETON         N/A     65  65 100 CALM      29.82F
ABERDEEN       CLOUDY    65  65 100 E7        29.82F
6HR MIN TEMP:  64; 6HR MAX TEMP:  67; 6HR PCP:  0.86;

MITCHELL       CLOUDY    71  70  96 E3        29.78F FOG
PIERRE         MOCLDY    66  65  96 N5        29.82S
6HR MIN TEMP:  66; 6HR MAX TEMP:  73;

MOBRIDGE       CLOUDY    64  64 100 SE7       29.82F FOG
RAPID CITY     CLEAR     56  55  97 CALM      29.92F
6HR MIN TEMP:  56; 6HR MAX TEMP:  77;

$$

  *****  SOME WEATHER IN NEARBY STATES *****

CITY           SKY/WX    TMP DP  RH WIND       PRES   REMARKS
GLASGOW MT     LGT RAIN  63  58  83 N29G37    29.88R
6HR MIN TEMP:  63; 6HR MAX TEMP:  86; 6HR PCP: TRACE;

GREAT FALLS MT CLOUDY    54  50  86 NW10      30.13R
6HR MIN TEMP:  54; 6HR MAX TEMP:  85;

CHEYENNE WY    CLEAR     50  48  93 W6        30.14F
6HR MIN TEMP:  50; 6HR MAX TEMP:  68;

SCOTTSBLUFF NE CLEAR     54  52  93 NE3       30.02F
6HR MIN TEMP:  53; 6HR MAX TEMP:  70;

OMAHA NE       CLOUDY    73  68  84 SE7       29.84F
6HR MIN TEMP:  72; 6HR MAX TEMP:  80;

DES MOINES IA  TSTM      69  67  93 NW13      29.94F FOG
6HR MIN TEMP:  69; 6HR MAX TEMP:  78; 6HR PCP:  2.22;

DAVENPORT IA   FAIR      69  67  93 S12       29.97F
6HR MIN TEMP:  68; 6HR MAX TEMP:  70;

CHICAGO IL     CLOUDY    70  64  81 SE7       30.01F
6HR MIN TEMP:  69; 6HR MAX TEMP:  71; 6HR PCP: TRACE;

EAU CLAIRE WI  CLOUDY    63  60  90 SE12      29.94F
6HR MIN TEMP:  63; 6HR MAX TEMP:  67; 6HR PCP:  0.07;

LA CROSSE WI   CLOUDY    66  62  87 E7        29.94F
6HR MIN TEMP:  66; 6HR MAX TEMP:  68; 6HR PCP:  0.23;

$$

  *****  SOME NATIONAL WEATHER *****

CITY           SKY/WX    TMP DP  RH WIND       PRES   REMARKS
LA GUARDIA NY  FAIR      67  51  56 N8        30.07R
6HR MIN TEMP:  67; 6HR MAX TEMP:  76;

RALEIGH NC     TSTM      75  72  88 CALM      30.03S FOG
6HR MIN TEMP:  75; 6HR MAX TEMP:  81; 6HR PCP: TRACE;

ATLANTA GA     FAIR      78  56  46 CALM      30.05S
6HR MIN TEMP:  71; 6HR MAX TEMP:  87;

NEW ORLEANS LA FAIR      81  73  76 CALM      29.96S
6HR MIN TEMP:  81; 6HR MAX TEMP:  87;

OKLAHOMA CITY  CLOUDY    70  65  84 SE7       29.91F
6HR MIN TEMP:  68; 6HR MAX TEMP:  77; 6HR PCP:  0.17;

ALBUQUERQUE NM CLEAR     73  42  32 NE5       30.15S
6HR MIN TEMP:  73; 6HR MAX TEMP:  82;

SALT LAKE CITY CLEAR     68  43  40 S9        30.09S
6HR MIN TEMP:  67; 6HR MAX TEMP:  84;

LOS ANGELES CA CLEAR     72  55  55 SW9       29.90S
6HR MIN TEMP:  72; 6HR MAX TEMP:  82;



USA.gov is the U.S. government's official web portal to all federal, state and local government web resources and services.